Location: Azul
(36.7830°S, 59.8500°W)
Time: 11:27:27
(UTC-03:00)

ISS - Pass Details

Date: 20 August 2019
Orbit: 410 x 420 km, 51.6° (Epoch: 21 August)

Event Time Altitude Azimuth Distance (km) Brightness Sun altitude
Rises 20:02:48 0° 312° (NW) 2,358 0.8 -19.3°
Reaches altitude 10° 20:04:53 10° 311° (NW) 1,499 -0.3 -19.7°
Enters shadow 20:08:14 88° 255° (WSW) 427 -3.8 -20.4°
